123  
ASUS41 KRLX 312310  
RWRRLX  
REGIONAL WEATHER ROUNDUP  
NATIONAL WEATHER SERVICE CHARLESTON WV  
700 PM EDT SUN MAY 31 2020  
 
NOTE: "FAIR" INDICATES FEW OR NO CLOUDS BELOW 12,000 FEET WITH NO  
SIGNIFICANT WEATHER AND/OR S TO VISIBILITY
.  
 
WVZ003-010000-  
NORTHERN PANHANDLE OF WEST VIRGINIA  
 
CITY SKY/WX TMP DP RH WIND PRES REMARKS
 
WHEELING SUNNY 61 37 41 NW12 30.23S  

 
 
WVZ009-010000-  
NORTHWEST WEST VIRGINIA  
 
CITY SKY/WX TMP DP RH WIND PRES REMARKS
 
PARKERSBURG SUNNY 68 41 37 N6 30.20F  

 
 
WVZ006-010000-  
WESTERN WEST VIRGINIA  
 
CITY SKY/WX TMP DP RH WIND PRES REMARKS
 
HUNTINGTON SUNNY 71 38 29 N12 30.20F  

 
 
WVZ015-010000-  
WEST CENTRAL WEST VIRGINIA  
 
CITY SKY/WX TMP DP RH WIND PRES REMARKS
 
CHARLESTON MOSUNNY 70 41 34 NW8 30.19S  

 
 
WVZ022-031-010000-  
NORTH CENTRAL WEST VIRGINIA  
 
CITY SKY/WX TMP DP RH WIND PRES REMARKS
 
MORGANTOWN MOSUNNY 65 39 38 NW7 30.21S  
CLARKSBURG SUNNY 66 39 37 N10 30.19R  
BUCKHANNON MOSUNNY 79 48 34 NW9 30.19S  

 
 
WVZ025-035-042-045-010000-  
SOUTHERN WEST VIRGINIA  
 
CITY SKY/WX TMP DP RH WIND PRES REMARKS
 
BECKLEY MOSUNNY 65 41 41 N12G21 30.21R  
LOGAN FAIR 68 45 42 VRB7 30.20S  
PINEVILLE MOSUNNY 71 42 35 MISG 30.23S  
BLUEFIELD PTSUNNY 63 41 44 N7 30.20R  
LEWISBURG SUNNY 66 41 39 N12 30.17F  

 
 
WVZ047-010000-  
NORTHERN MOUNTAINS OF WEST VIRGINIA  
 
CITY SKY/WX TMP DP RH WIND PRES REMARKS
 
ELKINS PTSUNNY 65 39 38 NW13 30.19R  

 
 
WVZ052-010000-  
EASTERN PANHANDLE OF WEST VIRGINIA  
 
CITY SKY/WX TMP DP RH WIND PRES REMARKS
 
MARTINSBURG SUNNY 69 37 30 N14G23 30.11R  
PETERSBURG SUNNY 69 42 36 NW10G18 30.15R  

 
 
SOUTHEAST OHIO/NORTHEAST KENTUCKY  
 
CITY SKY/WX TMP DP RH WIND PRES REMARKS
 
ATHENS SUNNY 67 39 36 N6 30.22S  
ASHLAND SUNNY 70 45 40 CALM 30.21F  

 
 
 
CLICK HERE TO GO TO PREVIOUS BULLETINS.

The Nexlab WV Page
The Nexlab OH Page
The Nexlab KY Page
The Nexlab VA Page Main Text Page